Powrót do katalogu

STARLINK-32202

AktywnyŁącznośćVLEO
NORAD 60595·PAYLOAD·🇺🇸 United States

Wystrzelony Aug 20, 2024 z Cape Canaveral Space Force Station

Loading…

Następne Przeloty (najbliższe 24 godziny)

TLE

ŚwieżeSource: CelesTrak SupGP

Epoka: Sep 14, 2026, 23:01 UTC

1 60595C 24150N   26257.95951389 -.00038625  00000+0 -12421-2 0  2572
2 60595  53.1573 146.9711 0001308  82.1045 232.6828 15.31721603    13

Śledź STARLINK-32202 w czasie rzeczywistym z AllMySat

Download on the App Store